Regional Weather Roundup
Issued by NWS Columbia, SC

Home | Current Version | Previous Version | Text Only | Print | Product List | Glossary On
Versions: 1 2 3 4 5 6 7 8 9 10 11 12 13 14 15 16 17 18 19 20 21 22 23 24 25 26 27
000
ASUS42 KCAE 130110
RWRCAE
REGIONAL WEATHER ROUNDUP
NATIONAL WEATHER SERVICE COLUMBIA SC
800 PM EST TUE DEC 12 2017

NOTE: "FAIR" INDICATES FEW OR NO CLOUDS BELOW 12,000 FEET WITH NO
SIGNIFICANT WEATHER AND/OR OBSTRUCTIONS TO VISIBILITY.

NOT ALL STATIONS ARE QUALITY CONTROLLED BY THE NATIONAL
WEATHER SERVICE. USE DATA WITH CAUTION...ESPECIALLY
DEWPOINT OBSERVATIONS.

SCZ001>056-GAZ040-063>065-077-130200-
...UPSTATE SOUTH CAROLINA...

CITY           SKY/WX    TMP DP  RH WIND       PRES   REMARKS
ANDERSON       CLEAR     39  21  48 W16G23    29.87R WCI  30
LIBERTY        CLEAR     37  17  43 W9G16     29.85R WCI  31
SPARTANBURG    PTCLDY    37  12  35 NW10G18   29.83R WCI  30
CLEMSON        CLEAR     37  21  52 W14       29.88R WCI  28
GREENVILLE     CLEAR     40  17  39 W9        29.84R WCI  34
GREENWOOD      CLEAR     41  20  43 NW7G18    29.87R
GREER          CLEAR     38  16  40 NW5       29.84R WCI  34
ROCK HILL        N/A    N/A N/A N/A MISG        N/A
CHESTER        CLEAR     39  18  41 NW13G22   29.82R WCI  32
LAURENS        CLEAR     41  21  45 NW8       29.84R


...CENTRAL SOUTH CAROLINA...

CITY           SKY/WX    TMP DP  RH WIND       PRES   REMARKS
COLUMBIA APT   CLEAR     48  25  40 W18       29.83R
COLUMBIA OWENS CLEAR     49  22  34 W14G29    29.84R
MCENTIRE ANGB  CLEAR     48  23  37 W18G29    29.81R
ORANGEBURG     CLEAR     47  30  51 W17G26    29.83R
SUMTER SHAW    CLEAR     48  28  44 W17G23    29.77R
NEWBERRY       CLEAR     43  25  49 W12       29.87R
AIKEN          FAIR      43  28  56 W12G18    29.88R
BARNWELL         N/A     48  30  49 W10G17    29.87R
MANNING        FAIR      50 -17   6 MISG      29.80R
CAMDEN         FAIR      45  21  39 NW13G24   29.82R
LANCASTER      CLEAR     41  16  36 NW9G18    29.81R
WINNSBORO      CLEAR     43  27  52 NW7       29.81R


...EASTERN AND COASTAL SOUTH CAROLINA...

CITY           SKY/WX    TMP DP  RH WIND       PRES   REMARKS
MYRTLE BEACH   CLEAR     49  37  63 W10       29.74R
N MYRTLE BCH   CLEAR     49  35  58 W5        29.71R
CONWAY         FAIR      45  36  70 W5        29.73R
MARION         MOCLDY    46  30  53 W9        29.73R
HARTSVILLE     FAIR      45  21  39 NW5       29.78R
FLORENCE       PTCLDY    50  30  46 NW14G25   29.76R
DARLINGTON     CLEAR     47  25  42 NW20G26   29.77R
CHARLESTON APT CLEAR     50  34  54 W13G22    29.81R
MOUNT PLEASANT FAIR      52  32  46 W12G18    29.79R
WALTERBORO     CLEAR     48  32  53 W14G24    29.85R
BEAUFORT       CLEAR     51  32  48 W15G24    29.86R


...EASTERN GEORGIA...

CITY           SKY/WX    TMP DP  RH WIND       PRES   REMARKS
AUGUSTA BUSH F CLEAR     46  29  51 W14       29.89R
AUGUSTA DANIEL CLEAR     46  28  49 W10G20    29.89R
THOMSON        CLEAR     43  27  54 N9        29.96R
WASHINGTON     FAIR      43  27  52 W14G20    29.90R
CLAXTON        FAIR      50  34  53 W14       29.92R
SYLVANIA       CLEAR     48  34  57 NW12      29.90R
STATESBORO     CLEAR     49  27  41 NW13G21   29.91R


...SOUTHERN NORTH CAROLINA...

CITY           SKY/WX    TMP DP  RH WIND       PRES   REMARKS
CHARLOTTE      CLEAR     38  18  44 N8        29.82R WCI  32
MONROE         CLEAR     40  18  41 NW13G20   29.79R WCI  32
WADESBORO      PTCLDY    43  19  38 W15G22    29.78R
RUTHERFORDTON  CLEAR     35  11  36 NW16G26   29.81S WCI  25
ASHEVILLE      CLEAR     31  14  49 NW21G30   29.80R WCI  18

$$




USA.gov is the U.S. government's official web portal to all federal, state and local government web resources and services.